Temporada 2025 · Ronda 24

Abu Dhabi Grand Prix

2025-12-07 · Yas Marina Circuito · UAE · Abu Dhabi Grand Prix · 58Lap · 306.183km
Red Bull 1:26:07.469
McLaren +12.594
Victoria de equipo 33pt P2 · P3 2-3
McLaren +16.572
Vuelta rápida
1:26.725 · L45
Abandono
0
todos clasificados · 20 salidos
Clima
27°/31°
media aire/pista · seco · humedad 60%
Coche de seguridad
0
Despliegues de SC/VSC
Uso de neumáticos Dirección de carrera
Storylines · This Grand Prix & circuit
Más victorias en este GP
Max Verstappen activo 5 victorias
Lewis Hamilton activo 5 victorias
Conversión pole-victoria 12/17 70.6%
Most SC/VSC · all-time P31
Final más ajustado · all-time P37
Circuito Info
Yas Marina Circuito Abu Dhabi, UAE
58Lap 306.183km 18 carreras held (2009–) Récord de vuelta 1:25.637 · Kevin Magnussen (2024)
Récords Watch · Active drivers ranked at this Grand Prix
P1 Lewis Hamilton 5 victorias · GP #1
P1 Max Verstappen 5 victorias · GP #1
P4 Lando Norris 1 victorias · → Sebastian Vettel -2
P1 Lewis Hamilton 5 · GP #1
P1 Max Verstappen 5 · GP #1
P1 Lewis Hamilton 17 salidas · GP #1
P2 Fernando Alonso 15 salidas · → Lewis Hamilton -2
P6 Nico Hülkenberg 12 salidas · → Daniel Ricciardo -1
Carrera Trace · position by lap
salida parada SG 1 6 11 16 21 26 31 36 41 46 51 56 FIN Verstappen · parada en boxes L23 Verstappen VER Verstappen VER Piastri · parada en boxes L41 Piastri PIA Piastri PIA Norris · parada en boxes L16 Norris · parada en boxes L40 Norris NOR Norris NOR Leclerc · parada en boxes L16 Leclerc · parada en boxes L39 Leclerc LEC Leclerc LEC Russell · parada en boxes L14 Russell RUS Russell RUS Alonso · parada en boxes L16 Alonso ALO Alonso ALO Ocon · parada en boxes L19 Ocon OCO Ocon OCO Hamilton · parada en boxes L8 Hamilton · parada en boxes L31 Hamilton HAM Hamilton HAM Hülkenberg · parada en boxes L7 Hülkenberg · parada en boxes L42 Hülkenberg HUL Hülkenberg HUL Stroll · parada en boxes L42 Stroll · +5s sumado tras la carrera Stroll STR Stroll STR Bortoleto · parada en boxes L15 Bortoleto BOR Bortoleto BOR Bearman · parada en boxes L14 Bearman · +5s sumado tras la carrera Bearman BEA Bearman BEA Sainz · parada en boxes L18 Sainz SAI Sainz SAI Tsunoda · parada en boxes L32 · sanción cumplida Tsunoda TSU Tsunoda TSU Antonelli · parada en boxes L32 Antonelli ANT Antonelli ANT Albon · parada en boxes L8 Albon · parada en boxes L33 Albon · +5s sumado tras la carrera Albon ALB Albon ALB Hadjar · parada en boxes L14 Hadjar HAD Hadjar HAD Lawson · parada en boxes L21 · sanción cumplida Lawson LAW Lawson LAW Gasly · parada en boxes L13 Gasly · parada en boxes L40 Gasly · +5s sumado tras la carrera Gasly GAS Gasly GAS Colapinto · parada en boxes L15 Colapinto · parada en boxes L40 Colapinto COL Colapinto COL
parada en boxes sanción cumplida en boxes SG Parrilla de salida FIN clasificación oficial sanción sumada tras la carrera coche detenido posición en cada vuelta (desde 1996)
PosPilotoTeamParrillaVueltaTiempo / EstadoPuntos
1 1 Max Verstappen Red Bull 1 58 1:26:07.469 25
2 81 Oscar Piastri McLaren 3 58 +12.594 18
3 4 Lando Norris McLaren 2 58 +16.572 15
4 16 Charles Leclerc FL Ferrari 5 58 +23.279 12
5 63 George Russell Mercedes 4 58 +48.563 10
6 14 Fernando Alonso Aston Martin 6 58 +1:07.562 8
7 31 Esteban Ocon Haas F1 Team 8 58 +1:09.876 6
8 44 Lewis Hamilton Ferrari 16 58 +1:12.670 4
9 27 Nico Hülkenberg Sauber 18 58 +1:19.014 2
10 18 Lance Stroll Aston Martin 15 58 +1:19.523 1
11 5 Gabriel Bortoleto Sauber 7 58 +1:21.043
12 87 Oliver Bearman Haas F1 Team 11 58 +1:21.166
13 55 Carlos Sainz Williams 12 58 +1:22.158
14 22 Yuki Tsunoda Red Bull 10 58 +1:23.794
15 12 Andrea Kimi Antonelli Mercedes 14 58 +1:24.399
16 23 Alexander Albon Williams 17 58 +1:30.327
17 6 Isack Hadjar RB F1 Team 9 57 +1.327
18 30 Liam Lawson RB F1 Team 13 57 +4.659
19 10 Pierre Gasly Alpine F1 Team 19 57 +11.908
20 43 Franco Colapinto Alpine F1 Team 20 57 +14.003
PosPilotoTeamQ1Q2Q3Diferencia con la pole
1 1 Max Verstappen Red Bull 1:22.877 1:22.752 1:22.207 POLE Q3
2 4 Lando Norris McLaren 1:23.178 1:22.804 1:22.408 +0.201 Q3
3 81 Oscar Piastri McLaren 1:22.605 1:23.021 1:22.437 +0.230 Q3
4 63 George Russell Mercedes 1:23.247 1:22.730 1:22.645 +0.438 Q3
5 16 Charles Leclerc Ferrari 1:23.163 1:22.948 1:22.730 +0.523 Q3
6 14 Fernando Alonso Aston Martin 1:23.071 1:22.861 1:22.902 +0.654 Q2
7 5 Gabriel Bortoleto Sauber 1:23.374 1:22.874 1:22.904 +0.667 Q2
8 31 Esteban Ocon Haas F1 Team 1:23.334 1:23.023 1:22.913 +0.706 Q3
9 6 Isack Hadjar RB F1 Team 1:23.373 1:22.997 1:23.072 +0.790 Q2
10 22 Yuki Tsunoda Red Bull 1:23.386 1:23.034 +0.827 Q2
11 87 Oliver Bearman Haas F1 Team 1:23.254 1:23.041 +0.834 Q2
12 55 Carlos Sainz Williams 1:23.187 1:23.042 +0.835 Q2
13 30 Liam Lawson RB F1 Team 1:23.265 1:23.077 +0.870 Q2
14 12 Andrea Kimi Antonelli Mercedes 1:22.894 1:23.080 +0.687 Q1
15 18 Lance Stroll Aston Martin 1:23.316 1:23.097 +0.890 Q2
16 44 Lewis Hamilton Ferrari 1:23.394 +1.187 Q1
17 23 Alexander Albon Williams 1:23.416 +1.209 Q1
18 27 Nico Hülkenberg Sauber 1:23.450 +1.243 Q1
19 10 Pierre Gasly Alpine F1 Team 1:23.468 +1.261 Q1
20 43 Franco Colapinto Alpine F1 Team 1:23.890 +1.683 Q1
Parrilla de salida
Oficial
Final grid as clasificado, including any desde el pit lane salidas. Source: Jolpica-F1. The arrow compares the grid slot with the clasificación classification; hover a drop to see the stewards document behind it.
No hay datos de esta sesión.
PosPilotoMejor vueltaDiferenciaVueltas
1 4 Lando Norris 1:24.485 28
2 1 Max Verstappen 1:24.493 +0.008 30
3 16 Charles Leclerc 1:24.501 +0.016 28
4 12 Andrea Kimi Antonelli 1:24.608 +0.123 30
5 27 Nico Hülkenberg 1:24.629 +0.144 28
6 63 George Russell 1:24.733 +0.248 29
7 5 Gabriel Bortoleto 1:24.742 +0.257 29
8 87 Oliver Bearman 1:24.759 +0.274 14
9 55 Carlos Sainz 1:24.771 +0.286 27
10 43 Franco Colapinto 1:24.855 +0.370 28
11 6 Isack Hadjar 1:24.977 +0.492 31
12 41 Arvid Lindblad 1:25.256 +0.771 26
Classified by best lap · source OpenF1 (2023+)
PosPilotoMejor vueltaDiferenciaVueltas
1 4 Lando Norris 1:23.083 28
2 1 Max Verstappen 1:23.446 +0.363 31
3 63 George Russell 1:23.462 +0.379 29
4 87 Oliver Bearman 1:23.501 +0.418 28
5 27 Nico Hülkenberg 1:23.550 +0.467 28
6 5 Gabriel Bortoleto 1:23.570 +0.487 28
7 6 Isack Hadjar 1:23.657 +0.574 29
8 16 Charles Leclerc 1:23.658 +0.575 31
9 14 Fernando Alonso 1:23.708 +0.625 27
10 12 Andrea Kimi Antonelli 1:23.750 +0.667 29
11 81 Oscar Piastri 1:23.763 +0.680 29
12 18 Lance Stroll 1:23.832 +0.749 29
13 55 Carlos Sainz 1:23.872 +0.789 31
14 44 Lewis Hamilton 1:23.939 +0.856 29
15 23 Alexander Albon 1:23.950 +0.867 32
16 31 Esteban Ocon 1:23.958 +0.875 27
17 22 Yuki Tsunoda 1:24.303 +1.220 29
18 30 Liam Lawson 1:24.474 +1.391 32
19 43 Franco Colapinto 1:24.771 +1.688 28
20 10 Pierre Gasly 1:24.963 +1.880 30
Classified by best lap · source OpenF1 (2023+)
PosPilotoMejor vueltaDiferenciaVueltas
1 63 George Russell 1:23.334 14
2 4 Lando Norris 1:23.338 +0.004 20
3 1 Max Verstappen 1:23.458 +0.124 15
4 14 Fernando Alonso 1:23.585 +0.251 17
5 81 Oscar Piastri 1:23.593 +0.259 17
6 31 Esteban Ocon 1:23.605 +0.271 19
7 87 Oliver Bearman 1:23.609 +0.275 16
8 16 Charles Leclerc 1:23.675 +0.341 18
9 12 Andrea Kimi Antonelli 1:23.707 +0.373 14
10 23 Alexander Albon 1:23.722 +0.388 18
11 5 Gabriel Bortoleto 1:23.791 +0.457 16
12 55 Carlos Sainz 1:23.811 +0.477 18
13 27 Nico Hülkenberg 1:23.870 +0.536 17
14 18 Lance Stroll 1:23.895 +0.561 19
15 30 Liam Lawson 1:23.947 +0.613 16
16 6 Isack Hadjar 1:23.979 +0.645 17
17 10 Pierre Gasly 1:24.072 +0.738 19
18 44 Lewis Hamilton 1:24.470 +1.136 8
19 43 Franco Colapinto 1:24.501 +1.167 18
20 22 Yuki Tsunoda 1:24.693 +1.359 10
Classified by best lap · source OpenF1 (2023+)
#PilotoTiempo de vueltaVuelta
1 16 Charles Leclerc 1:26.725 L45
2 81 Oscar Piastri 1:26.765 L44
3 4 Lando Norris 1:26.818 L48
4 4 Lando Norris 1:26.834 L44
5 16 Charles Leclerc 1:26.845 L48
6 16 Charles Leclerc 1:26.847 L44
7 16 Charles Leclerc 1:26.856 L46
8 4 Lando Norris 1:26.867 L47
9 4 Lando Norris 1:26.895 L52
10 4 Lando Norris 1:26.907 L49
Top 10 más rápida race vueltas — #1 is the más rápida lap of la carrera(FL).
Paradas · cómo se comparan
22s 24s 26s 28s mediana 21.8s Charles Leclerc · L39 · 20.902s Lando Norris · L16 · 21.323s Lando Norris · L40 · 21.407s Lewis Hamilton · L31 · 21.417s Nico Hülkenberg · L42 · 21.468s Alexander Albon · L33 · 21.495s Lance Stroll · L42 · 21.535s Alexander Albon · L8 · 21.551s Oscar Piastri · L41 · 21.565s Lewis Hamilton · L8 · 21.601s Nico Hülkenberg · L7 · 21.619s Charles Leclerc · L16 · 21.692s Max Verstappen · L23 · 21.703s Carlos Sainz · L18 · 21.799s Isack Hadjar · L14 · 21.932s Franco Colapinto · L15 · 21.953s George Russell · L14 · 21.979s Gabriel Bortoleto · L15 · 22.121s Andrea Kimi Antonelli · L32 · 22.155s Pierre Gasly · L40 · 22.234s Esteban Ocon · L19 · 22.254s Oliver Bearman · L14 · 22.263s Pierre Gasly · L13 · 22.585s Franco Colapinto · L40 · 22.955s Fernando Alonso · L16 · 23.267s Yuki Tsunoda · L32 · 27.041s · sanción cumplida Liam Lawson · L21 · 28.369s · sanción cumplida
más rápida 20.902s Charles Leclerc más lenta 28.369s Liam Lawson sanción cumplida tiempo de paso por el desde el pit lane — un punto por parada
PilotoParadaVueltaTiempoPaso por el desde el pit lane
27 Nico Hülkenberg 1 7 17:14:13 21.619s
23 Alexander Albon 1 8 17:15:41 21.551s
44 Lewis Hamilton 1 8 17:15:40 21.601s
10 Pierre Gasly 1 13 17:23:21 22.585s
6 Isack Hadjar 1 14 17:24:41 21.932s
87 Oliver Bearman 1 14 17:24:45 22.263s
63 George Russell 1 14 17:24:34 21.979s
5 Gabriel Bortoleto 1 15 17:26:07 22.121s
43 Franco Colapinto 1 15 17:26:25 21.953s
4 Lando Norris 1 16 17:27:28 21.323s
14 Fernando Alonso 1 16 17:27:35 23.267s
16 Charles Leclerc 1 16 17:27:30 21.692s
55 Carlos Sainz 1 18 17:30:51 21.799s
31 Esteban Ocon 1 19 17:32:16 22.254s
30 Liam Lawson 1 21 17:35:27 28.369s
1 Max Verstappen 1 23 17:37:49 21.703s
44 Lewis Hamilton 2 31 17:50:26 21.417s
22 Yuki Tsunoda 1 32 17:51:52 27.041s
12 Andrea Kimi Antonelli 1 32 17:52:04 22.155s
23 Alexander Albon 2 33 17:53:36 21.495s
16 Charles Leclerc 2 39 18:01:53 20.902s
4 Lando Norris 2 40 18:03:15 21.407s
10 Pierre Gasly 2 40 18:04:14 22.234s
43 Franco Colapinto 2 40 18:04:20 22.955s
81 Oscar Piastri 1 41 18:04:39 21.565s
18 Lance Stroll 1 42 18:06:56 21.535s
27 Nico Hülkenberg 2 42 18:07:04 21.468s
paradas
SG 10 20 30 40 50 L58
1
1
M22
H36
81
1
H40
M18
4
2
M15
H24
H19
16
2
M15
H23
M20·+3
63
1
M13
H45
14
1
M15·+1
H43·+1
31
1
M18
H40
44
2
S7
H23
M28
27
2
S6
H35
M17
18
1
H41·+1
M17
5
1
M14
H44
87
1
M13
H45
55
1
M17
H41
22
1
H31
M27
12
1
H31
M27
23
2
S7
H25
M26
6
1
M13
H44
30
1
M20
H37
10
2
M12
H27
M18·+3
43
2
M14
H25
M18
S Soft M Medium H Hard I Intermediate W Wet SC·VSC parada en boxes sanción cumplida en boxes
Carrera · ancho de barra = vueltas con ese juego, ·+N = montado usado con N vueltas previas · fuente OpenF1 (2023+)
Compuestos designados para este Gran Premio
C3 Duro C4 Medio C5 Blando
Pirelli designa tres de sus compuestos secos para cada prueba; cuanto mayor es el número C, más blando es el neumático. Documento FIA ↗
Más puestos ganados en pista
44
+22
P16→P8
27
+19
P18→P9
18
+19
P15→P10
12
+17
P14→P15
31
+16
P8→P7
55
+15
P12→P13
23
+15
P17→P16
22
+13
P10→P14
Más puestos perdidos
Isack Hadjar −18 Yuki Tsunoda −17 Liam Lawson −17
Carrera · Suma de posiciones ganadas en pista vuelta a vuelta — se excluyen la vuelta de salida y las vueltas de boxes propias. Datos de vueltas de carrera desde 1996.
PilotoTipoVueltaCumplidaImpuestaMotivo
4 Lando Norris No further action Car 4 left the track on the straight between T5 and T6 and allegedly gained a lasting advantage. (No further action.) Doc 48 ↗
Car 4 left the track on the straight between T5 and T6 and allegedly gained a lasting advantage. (No further action.) Doc 48 ↗
10 Pierre Gasly No further action Car 10 allegedly causing a collision, and touched wheels with Car 27 at exit of T5. (No further action.) Doc 44 ↗
Car 10 allegedly causing a collision, and touched wheels with Car 27 at exit of T5. (No further action.) Doc 44 ↗
27 Nico Hülkenberg No further action Car 27 allegedly causing a collision, and touched wheels with Car 10 at exit of T5. (No further action.) Doc 43 ↗
Car 27 allegedly causing a collision, and touched wheels with Car 10 at exit of T5. (No further action.) Doc 43 ↗
30 Liam Lawson Time penalty 14 21 +5s · 1pt Car 30 drove erratically when defending its position against Car 87 (5 second time penalty. 1 penalty point (total of 6 for the 12 month period).) Doc 45 ↗
Vuelta 14 · Cumplida 21 · +5s · 1pt Car 30 drove erratically when defending its position against Car 87 (5 second time penalty. 1 penalty point (total of 6 for the 12 month period).) Doc 45 ↗
22 Yuki Tsunoda Time penalty 29 32 +5s · 1pt Car 22 made more than one change of direction to defend its position (5 second time penalty. 1 penalty point (total of 8 for the 12 month period).) Doc 46 ↗
Vuelta 29 · Cumplida 32 · +5s · 1pt Car 22 made more than one change of direction to defend its position (5 second time penalty. 1 penalty point (total of 8 for the 12 month period).) Doc 46 ↗
23 Alexander Albon Time penalty 38 Tras la carrera +5s Pit lane speeding – 80.1 km/h (5 second time penalty.) Doc 47 ↗
Vuelta 38 · Cumplida Tras la carrera · +5s Pit lane speeding – 80.1 km/h (5 second time penalty.) Doc 47 ↗
10 Pierre Gasly Time penalty 46 Tras la carrera +5s Leaving the track without a justifiable reason multiple times. (5 second time penalty.) Doc 50 ↗
Vuelta 46 · Cumplida Tras la carrera · +5s Leaving the track without a justifiable reason multiple times. (5 second time penalty.) Doc 50 ↗
18 Lance Stroll Time penalty 58 Tras la carrera +5s · 1pt Car 18 made more than one change of direction to defend its position (5 second time penalty. 1 penalty point (total of 6 for the 12 month period).) Doc 52 ↗
Vuelta 58 · Cumplida Tras la carrera · +5s · 1pt Car 18 made more than one change of direction to defend its position (5 second time penalty. 1 penalty point (total of 6 for the 12 month period).) Doc 52 ↗
87 Oliver Bearman Time penalty 58 Tras la carrera +5s · 1pt Car 87 made more than one change of direction to defend its position (5 second time penalty. 1 penalty point (total of 10 for the 12 month period).) Doc 51 ↗
Vuelta 58 · Cumplida Tras la carrera · +5s · 1pt Car 87 made more than one change of direction to defend its position (5 second time penalty. 1 penalty point (total of 10 for the 12 month period).) Doc 51 ↗
30 Liam Lawson Black-and-white flag warning 23 TRACK LIMITS
Vuelta 23 TRACK LIMITS
12 Andrea Kimi Antonelli Black-and-white flag warning 31 TRACK LIMITS
Vuelta 31 TRACK LIMITS
44 Lewis Hamilton Black-and-white flag warning 31 TRACK LIMITS
Vuelta 31 TRACK LIMITS
10 Pierre Gasly Black-and-white flag warning 31 TRACK LIMITS
Vuelta 31 TRACK LIMITS
27 Nico Hülkenberg Black-and-white flag warning 31 TRACK LIMITS
Vuelta 31 TRACK LIMITS
43 Franco Colapinto Black-and-white flag warning 33 TRACK LIMITS
Vuelta 33 TRACK LIMITS
23 Alexander Albon Black-and-white flag warning 56 TRACK LIMITS
Vuelta 56 TRACK LIMITS
55 Carlos Sainz Vueltas eliminadas 19 TRACK LIMITS (PIT)
Vuelta 19 TRACK LIMITS (PIT)
18 Lance Stroll Vueltas eliminadas 43 TRACK LIMITS (PIT)
Vuelta 43 TRACK LIMITS (PIT)
Vuelta = vuelta en que se impuso la sanción · Cumplida = vuelta en que se cumplió en boxes (en blanco: se sumó al tiempo de carrera)
Time, drive-through and stop-go penalties come from race control messages (OpenF1, 2023+). Parrilla penalties never appear there — the stewards publish them as documents after the session — so they are worked back from the starting grid against the clasificación classification, which gives places actually lost rather than the figure written in the decision.
PilotoTipoVueltaCumplidaImpuestaMotivo
12 Andrea Kimi Antonelli Fine €10,000 Car 12 was released from the garage into the path of Car 22, and collided with that car causing damage to both cars (The competitor (Mercedes-AMG PETRONAS F1 Team) is fined €10,000.) Doc 32 ↗
€10,000 Car 12 was released from the garage into the path of Car 22, and collided with that car causing damage to both cars (The competitor (Mercedes-AMG PETRONAS F1 Team) is fined €10,000.) Doc 32 ↗
23 Alexander Albon Fine €5,000 Car 23 was released from its garage into the path of Car 31. (The competitor (Atlassian Williams Racing) is fined €5,000.) Doc 31 ↗
€5,000 Car 23 was released from its garage into the path of Car 31. (The competitor (Atlassian Williams Racing) is fined €5,000.) Doc 31 ↗
22 Yuki Tsunoda Black-and-white flag warning €10,000 Car 22 impeded Car 4 between turns 11 and 12 (The competitor (Oracle Red Bull Racing) is fined €10,000 A formal warning is issued to the driver.) Doc 30 ↗
€10,000 Car 22 impeded Car 4 between turns 11 and 12 (The competitor (Oracle Red Bull Racing) is fined €10,000 A formal warning is issued to the driver.) Doc 30 ↗
Vuelta = vuelta en que se impuso la sanción · Cumplida = vuelta en que se cumplió en boxes (en blanco: se sumó al tiempo de carrera)
Time, drive-through and stop-go penalties come from race control messages (OpenF1, 2023+). Parrilla penalties never appear there — the stewards publish them as documents after the session — so they are worked back from the starting grid against the clasificación classification, which gives places actually lost rather than the figure written in the decision.
PilotoTipoVueltaCumplidaImpuestaMotivo
14 Fernando Alonso Fine €25,000 The driver did not attend the Fan Engagement activity on Friday (The competitor (Aston Martin Aramco F1 Team) is fined €25,000 of which €15,000 is suspended for a pe) Doc 22 ↗
€25,000 The driver did not attend the Fan Engagement activity on Friday (The competitor (Aston Martin Aramco F1 Team) is fined €25,000 of which €15,000 is suspended for a pe) Doc 22 ↗
18 Lance Stroll Fine €25,000 The driver did not attend the Fan Engagement activity on Friday (The competitor (Aston Martin Aramco F1 Team) is fined €25,000 of which €15,000 is suspended for a pe) Doc 21 ↗
€25,000 The driver did not attend the Fan Engagement activity on Friday (The competitor (Aston Martin Aramco F1 Team) is fined €25,000 of which €15,000 is suspended for a pe) Doc 21 ↗
Vuelta = vuelta en que se impuso la sanción · Cumplida = vuelta en que se cumplió en boxes (en blanco: se sumó al tiempo de carrera)
Time, drive-through and stop-go penalties come from race control messages (OpenF1, 2023+). Parrilla penalties never appear there — the stewards publish them as documents after the session — so they are worked back from the starting grid against the clasificación classification, which gives places actually lost rather than the figure written in the decision.
DocTítuloAsuntoPublished(CET)
1 Event Notes - Pirelli Preview ↗ 2025-12-03 09:28
2025-12-03 09:28 CET
2 Carrera Director's Event Notes ↗ 2025-12-04 14:32
2025-12-04 14:32 CET
3 Car Display Procedure ↗ 2025-12-04 15:45
2025-12-04 15:45 CET
4 Event Notes - Circuito Map, Pit Lane Drawing, Emergency Exits Map, Quarantine Zone and Red Zones ↗ 2025-12-04 16:27
2025-12-04 16:27 CET
5 PU Elements usados per Piloto up to now ↗ 2025-12-05 06:34
2025-12-05 06:34 CET
6 Self Scrutineering ↗ 2025-12-05 06:35
2025-12-05 06:35 CET
7 Entry List ↗ 2025-12-05 07:15
2025-12-05 07:15 CET
8 Car Presentation Submissions ↗ 2025-12-05 08:00
2025-12-05 08:00 CET
9 P1 Classification ↗ 2025-12-05 11:46
2025-12-05 11:46 CET
10 P2 Classification ↗ 2025-12-05 15:18
2025-12-05 15:18 CET
11 Carrera Director Notes - SC2 - SC1 Times ↗ 2025-12-05 15:32
2025-12-05 15:32 CET
12 Carrera Director Event Notes - Quarantine Area V2 ↗ 2025-12-05 15:33
2025-12-05 15:33 CET
13 P1 and P2 Scrutineering ↗ 2025-12-05 17:25
2025-12-05 17:25 CET
14 Event Notes - Pirelli Preview V2 ↗ 2025-12-06 07:44
2025-12-06 07:44 CET
15 Summons - Car 18 - Fan Engagement Activity ↗ 18 Lance Stroll 2025-12-06 08:33
18 Lance Stroll 2025-12-06 08:33 CET
16 Summons - Car 14 - Fan Engagement Activity ↗ 14 Fernando Alonso 2025-12-06 08:33
14 Fernando Alonso 2025-12-06 08:33 CET
17 Curfew ↗ 2025-12-06 09:25
2025-12-06 09:25 CET
18 Post-Clasificación Procedure ↗ 2025-12-06 09:30
2025-12-06 09:30 CET
19 Carrera Director's Event Notes V2 ↗ 2025-12-06 10:29
2025-12-06 10:29 CET
20 New PU elements for this Competition ↗ 2025-12-06 11:39
2025-12-06 11:39 CET
21 Infringement - Car 18 - Fan Engagement Activity ↗ 18 Lance Stroll 2025-12-06 11:47
18 Lance Stroll 2025-12-06 11:47 CET
22 Infringement - Car 14 - Fan Engagement Activity ↗ 14 Fernando Alonso 2025-12-06 11:48
14 Fernando Alonso 2025-12-06 11:48 CET
23 Summons - Car 22 - Alleged impeding of Car 4 ↗ 22 Yuki Tsunoda 2025-12-06 12:39
22 Yuki Tsunoda 2025-12-06 12:39 CET
24 Summons - Car 4 - Alleged impeding by Car 22 ↗ 4 Lando Norris 2025-12-06 12:39
4 Lando Norris 2025-12-06 12:39 CET
25 Summons - Car 23 - Alleged unsafe release ↗ 23 Alexander Albon 2025-12-06 12:40
23 Alexander Albon 2025-12-06 12:40 CET
26 Summons - Car 31 - Alleged unsafe release ↗ 31 Esteban Ocon 2025-12-06 12:40
31 Esteban Ocon 2025-12-06 12:40 CET
27 P3 Classification ↗ 2025-12-06 12:43
2025-12-06 12:43 CET
28 Summons - Car 22 - Alleged unsafe release ↗ 22 Yuki Tsunoda 2025-12-06 12:55
22 Yuki Tsunoda 2025-12-06 12:55 CET
29 Summons - Car 12 - Alleged unsafe release ↗ 12 Andrea Kimi Antonelli 2025-12-06 12:55
12 Andrea Kimi Antonelli 2025-12-06 12:55 CET
30 Infringement - Car 22 - Impeding of Car 4 ↗ 22 Yuki Tsunoda 2025-12-06 14:20
22 Yuki Tsunoda 2025-12-06 14:20 CET
31 Infringement - Car 23 - Unsafe Release From Garage ↗ 23 Alexander Albon 2025-12-06 14:40
23 Alexander Albon 2025-12-06 14:40 CET
32 Infringement - Car 12 - Unsafe Release From Garage ↗ 12 Andrea Kimi Antonelli 2025-12-06 14:40
12 Andrea Kimi Antonelli 2025-12-06 14:40 CET
33 Provisional Clasificación Classification ↗ 2025-12-06 16:15
2025-12-06 16:15 CET
34 Decision - Clasificación SC2-SC1 Times ↗ 2025-12-06 16:35
2025-12-06 16:35 CET
35 Infringement - Clasificación Deleted Vuelta Times ↗ 2025-12-06 16:36
2025-12-06 16:36 CET
36 P3 and Clasificación Scrutineering ↗ 2025-12-06 17:33
2025-12-06 17:33 CET
37 Final Clasificación Classification ↗ 2025-12-06 17:40
2025-12-06 17:40 CET
38 Provisional Starting Parrilla ↗ 2025-12-06 17:45
2025-12-06 17:45 CET
39 Pre-Carrera Procedure ↗ 2025-12-07 09:23
2025-12-07 09:23 CET
40 Post-Carrera Procedure ↗ 2025-12-07 09:24
2025-12-07 09:24 CET
41 Parts and Parameters been replaced and or changed during Parc Fermé ↗ 2025-12-07 12:56
2025-12-07 12:56 CET
42 Final Starting Parrilla ↗ 2025-12-07 13:00
2025-12-07 13:00 CET
43 Decision - Car 27 - Alleged causing a collision ↗ 27 Nico Hülkenberg 2025-12-07 15:58
27 Nico Hülkenberg 2025-12-07 15:58 CET
44 Decision - Car 10 - Alleged causing a collision ↗ 10 Pierre Gasly 2025-12-07 15:58
10 Pierre Gasly 2025-12-07 15:58 CET
45 Infringement - Car 30 - Erratic driving ↗ 30 Liam Lawson 2025-12-07 15:58
30 Liam Lawson 2025-12-07 15:58 CET
46 Infringement - Car 22 - More than one change of direction ↗ 22 Yuki Tsunoda 2025-12-07 15:59
22 Yuki Tsunoda 2025-12-07 15:59 CET
47 Infringement - Car 23 - Pit Lane Speeding ↗ 23 Alexander Albon 2025-12-07 15:59
23 Alexander Albon 2025-12-07 15:59 CET
48 Decision - Car 4 - Alleged leaving the track and gaining an advantage ↗ 4 Lando Norris 2025-12-07 15:59
4 Lando Norris 2025-12-07 15:59 CET
49 Provisional Carrera Classification ↗ 2025-12-07 15:51
2025-12-07 15:51 CET
50 Infringement - Car 10 - Leaving the track without a justifiable reason multiple times. ↗ 10 Pierre Gasly 2025-12-07 16:04
10 Pierre Gasly 2025-12-07 16:04 CET
51 Infringement - Car 87 - More than one change of direction ↗ 87 Oliver Bearman 2025-12-07 16:04
87 Oliver Bearman 2025-12-07 16:04 CET
52 Infringement - Car 18 - More than one change of direction ↗ 18 Lance Stroll 2025-12-07 16:36
18 Lance Stroll 2025-12-07 16:36 CET
53 Infringement - Carrera Deleted Vuelta Times ↗ 2025-12-07 16:48
2025-12-07 16:48 CET
54 Carrera Scrutineering ↗ 2025-12-07 17:17
2025-12-07 17:17 CET
55 Final Carrera Classification ↗ 2025-12-07 17:30
2025-12-07 17:30 CET
56 Campeonato Puntos ↗ 2025-12-07 17:35
2025-12-07 17:35 CET
FIA official decisions and documents (fia.com) · PDF original PDF links
Record Basis · Calculation basis
Carrera order is the final classification(post-race penalties applied) · clasificación session data 2003+ · lap times 1996+ · pit stops 2012+ (pit-lane transit, not stationary time) · Abandono = Finished(Finished·+N Vueltas) non-Finished statuses
Fuentes de datos: Jolpica-F1 (Ergast compatible API) · weather·Dirección de carrera OpenF1 (2023+) · Last fetched: 2026-09-05 14:15